THOR ABLESTAR DEB, 13942

Orbit data source: Space-Track

THOR ABLESTAR DEB, 13942 is space debris in LEO originally from a launch on Thu, 29 Jun 1961 UTC launched from the Air Force Eastern Test Range (AFETR). Debris objects in space refer to the collection of defunct objects orbiting the Earth. Examples of debris include non-operational satellites, rocket bodies, and fragments generated from explosions, collisions, or faulty payload assembly.

Loading next visibility...
Identifier
13942, 1961-015KZ
Orbit
LEO
Country
Flag of USUS
Related business
Manufacturer
Unknown
Mission
Spacecraft
Bus & Motor
Unknown
Mass
Unknown
Launch date (UTC)
1961-06-29 (64 years ago)
Launch vehicle
Unknown
Launch site
Air Force Eastern Test Range (AFETR)
Object type
Payload
Rocket body
Debris
Shape & HBR
Unknown shape, 0.1 m
Radar Cross Section
Small (<0.1 m²)

Expand to show TLE details & history
Last TLE update: 7 hours ago

TLE from 7 hours ago
0 THOR ABLESTAR DEB
1 13942U 61015KZ  25299.91536361  .00001105  00000-0  24449-2 0  9995
2 13942  65.8590 146.9005 0384582  11.9736 101.5085 13.07375202 38142
Epoch: 2025-10-26T21:58Z
TLE epoch observation values (Epoch: 2025-10-26T21:58:07.415Z)
Latitude
53.96939°
Longitude
-75.96929°
Altitude
1,310.372 km
Speed
7.174 km/s
True Right ascension
19h 16m 20s
True Declination
53° 49' 03"
Sunlit
Object was in daylight at epoch
Visualization orbit readout
Latitude
Unknown
Longitude
Unknown
Altitude
Unknown
Speed
Unknown
Apparent Right ascension
Unknown
Apparent Declination
Unknown
Sunlit
N/A
Visualization observer readout
Local Sidereal Time
00:49:23
Azimuth
Unknown
Elevation
Unknown
Doppler factor
Unknown
Orbital elements
Apogee altitude
1,524.558 km
Perigee altitude
939.222 km
Semi-major axis
7,610.027 km
Eccentricity
0.03846
Inclination
65.859°
RAAN
146.9005°
Arg. of periapsis
11.9736°
True anomaly
105.78188°
Mean anomaly
101.5085°
Eccentric anomaly
103.64976°
Mean motion
3.26937 °/min
Orbital period
110.11 mins
BSTAR
0.0024449
Loading maneuver chart data...
Computing Atmospheric mass density...

Documentation

Showing up to 5 results
|